Hourly Data Report for January 28, 2004

TORONTO CITY
ONTARIO

43°40'00.000" N
79°24'00.000" W
112.50 m
6158355
71508
XTO

Download Data

Hourly Data (January 2004)
Hourly Data Report for January 28, 2004
TIME
LST
Temp Definition
°C
Dew Point Definition
°C
Rel Hum Definition
%
Precip. Amount Definition
mm

Wind Dir Definition
10's deg

Wind Spd Definition
km/h
Visibility Definition
km
Stn Press Definition
kPa
Hmdx Definition


Wind Chill Definition


Weather Definition


00:00 -3.3 -5.9 82   LegendMM LegendMM LegendMM 98.91     LegendNANA
01:00 -3.6 -6.2 82   LegendMM LegendMM LegendMM 98.86     LegendNANA
02:00 -4.1 -6.5 83   LegendMM LegendMM LegendMM 98.87     LegendNANA
03:00 -4.2 -6.6 83   LegendMM LegendMM LegendMM 98.88     LegendNANA
04:00 -4.0 -5.9 87   LegendMM LegendMM LegendMM 98.85     LegendNANA
05:00 -4.1 -4.9 94   LegendMM LegendMM LegendMM 98.84     LegendNANA
06:00 -4.0 -4.7 95   LegendMM LegendMM LegendMM 98.89     LegendNANA
07:00 -4.5 -5.7 91   LegendMM LegendMM LegendMM 98.98     LegendNANA
08:00 -4.7 -6.5 87   LegendMM LegendMM LegendMM 99.11     LegendNANA
09:00 -4.5 -6.9 83   LegendMM LegendMM LegendMM 99.18     LegendNANA
10:00 -4.7 -7.8 79   LegendMM LegendMM LegendMM 99.27     LegendNANA
11:00 -4.8 -9.7 69   LegendMM LegendMM LegendMM 99.34     LegendNANA
12:00 -4.4 -10.1 64   LegendMM LegendMM LegendMM 99.37     LegendNANA
13:00 -4.8 -10.4 65   LegendMM LegendMM LegendMM 99.40     LegendNANA
14:00 -4.4 -10.7 61   LegendMM LegendMM LegendMM 99.42     LegendNANA
15:00 -5.0 -10.8 64   LegendMM LegendMM LegendMM 99.48     LegendNANA
16:00 -4.8 -11.1 61   LegendMM LegendMM LegendMM 99.56     LegendNANA
17:00 -5.3 -10.7 66   LegendMM LegendMM LegendMM 99.62     LegendNANA
18:00 -5.3 -9.6 72   LegendMM LegendMM LegendMM 99.66     LegendNANA
19:00 -5.4 -10.0 70   LegendMM LegendMM LegendMM 99.68     LegendNANA
20:00 -5.7 -9.0 77   LegendMM LegendMM LegendMM 99.63     LegendNANA
21:00 -5.6 -8.1 83   LegendMM LegendMM LegendMM 99.55     LegendNANA
22:00 -5.4 -7.7 84   LegendMM LegendMM LegendMM 99.51     LegendNANA
23:00 -5.3 -7.7 83   LegendMM LegendMM LegendMM 99.44     LegendNANA

Notes on Data Quality.

Legend

  • E = Estimated
  • M = Missing
  • NA = Not Available*
  • [empty] = Indicates an unobserved value
Date modified: